Location: Chippewa Lake
(41.0698°N, 81.9010°W)
Time: 00:58:43
(UTC+00:00)

Cosmos 1892 Rocket - Pass Details

Date: 09 May 2021
Orbit: 607 x 632 km, 82.5° (Epoch: 24 June)

Event Time Altitude Azimuth Distance (km) Brightness Sun altitude
Rises 09:29:50 0° 184° (S) 2,864 6.6 -8.4°
Reaches altitude 10° 09:32:03 10° 183° (S) 1,960 5.8 -8.1°
Maximum altitude 09:36:23 82° 97° (E) 621 3.7 -7.4°
Drops below altitude 10° 09:40:44 10° 10° (N) 1,967 6.8 -6.7°
Sets 09:42:57 0° 9° (N) 2,875 7.6 -6.3°
